Flag for Canada Weather past 2 weeks in London, Ontario, Canada

Now
57 °F

Fog.


Feels Like: 57 °F
Forecast: 60 / 84 °F
Wind: No wind

Location: London Weather Station

Current Time: Sep 1, 2015 at 5:08:31 AM

Latest Report: Sep 1, 2015 at 4:00 AM


Visibility: 0 mi

Pressure: 30.07 "Hg

Humidity: 100%

Dew point: 57 °F

Location of LondonLocation

Historic Weather in London — Graph

°F

London temperature yesterday

Maximum temperature yesterday: 81 °F (at 4:00 PM)
Minimum temperature yesterday: 61 °F (at 5:00 AM)
Average temperature yesterday: 70 °F

Past Weeks' High & Low Weather Summary

 TemperatureHumidityPressure
High86 °F (Aug 17, 2:00 PM)100% (Aug 17, 7:00 AM)30.24 "Hg (Aug 17, 7:00 AM)
Low46 °F (Aug 28, 5:00 AM)47% (Aug 22, 4:00 PM)29.67 "Hg (Aug 20, 6:00 AM)
Average66 °F81%30.02 "Hg
* Reported Aug 17 3:00 AM — Sep 1 3:00 AM, London, Weather by CustomWeather, © 2015

Note: Actual official high and low records may vary slightly from our data, if they occured in-between our weather recording intervals... More about our weather records

Advertising

London weather history for previous 24 hours

 ConditionsComfort  
Time TempWeatherWind HumidityBarometerVisibility
3:00 AM
Tue, Sep 1
61 °FFog.No wind100%30.07 "Hg1 mi
2:00 AM61 °FFog.No wind100%30.06 "Hg2 mi
1:51 AM61 °FFog.No wind100%30.07 "Hg2 mi
1:00 AM61 °FFog.No wind100%30.07 "Hg1 mi
12:00 AM63 °FFog.No wind100%30.06 "Hg3 mi
11:00 PM
Mon, Aug 31
64 °FClear.No wind94%30.06 "Hg15 mi
10:00 PM66 °FClear.3 mph94%30.06 "Hg12 mi
9:00 PM70 °FSunny.5 mph88%30.05 "Hg10 mi
8:00 PM72 °FFog.3 mph88%30.04 "Hg6 mi
7:00 PM77 °FSunny.6 mph69%30.03 "Hg10 mi
6:00 PM79 °FSunny.6 mph65%30.03 "Hg10 mi
5:00 PM79 °FPassing clouds.9 mph65%30.03 "Hg10 mi
4:00 PM81 °FPassing clouds.9 mph66%30.03 "Hg10 mi
3:00 PM79 °FPassing clouds.8 mph65%30.04 "Hg10 mi
2:00 PM79 °FScattered clouds.9 mph65%30.06 "Hg12 mi
1:00 PM77 °FBroken clouds.8 mph69%30.06 "Hg15 mi
12:00 PM75 °FMostly cloudy.6 mph74%30.08 "Hg15 mi
11:00 AM73 °FPartly sunny.6 mph83%30.08 "Hg10 mi
10:00 AM72 °FFog.6 mph88%30.07 "Hg4 mi
9:48 AM70 °FFog.3 mph94%30.07 "Hg3 mi
9:00 AM68 °FFog.3 mph100%30.07 "Hg2 mi
8:00 AM64 °FFog.No wind100%30.05 "Hg0 mi
7:00 AM63 °FFog.No wind100%30.04 "Hg0 mi
6:52 AM63 °FFog.No wind100%30.03 "Hg0 mi
6:00 AM63 °FFog.2 mph100%30.02 "Hg0 mi
5:00 AM61 °FFog.No wind100%30.02 "Hg1 mi
Weather by CustomWeather, © 2015

See weather overviewHow to use our weather pages